[[{"header":{"parameterUnit":"m.s-1","parameterCategory":1,"la1":30.2991,"la2":30.254,"lo1":-89.0895,"lo2":-89.0444,"dy":0.0017,"dx":0.0017,"nx":28,"ny":28,"refTime":"2026-02-27T03:00:00:Z","depth":0,"parameterNumber":2,"parameterNumberName":"U-component_of_WINDS"},"data":[0,0,0,0,0,0,0,0,0,0,0,0,0,0,0,0,0,0,0,0,0,0,0,0,0,0,0,0,0,0,0,0,0,0,0,0,0,0,0,0,0,0,0,0,0,0,0,0,0,0,0,0,0,0,0,0,0,0,-1.7192,-1.7192,0,-1.7158,-1.7158,-1.7158,-1.7085,-1.7084,-1.7082,-1.7081,-1.7047,-1.7048,-1.7048,0,0,0,0,0,0,0,0,0,0,0,0,0,-1.7196,-1.7196,-1.7192,-1.7192,-1.7191,-1.7159,-1.7158,-1.7158,-1.7085,-1.7084,-1.7082,-1.708,-1.7047,-1.7048,-1.7048,0,0,0,0,0,0,0,0,0,0,0,0,0,-1.7182,-1.7197,-1.7192,-1.7151,-1.7147,-1.7159,-1.7158,-1.7157,-1.7086,-1.7084,-1.7081,-1.7079,-1.7047,-1.7048,-1.7049,-1.7097,0,0,-1.7051,-1.7051,0,0,0,0,0,0,0,0,-1.7183,-1.7182,-1.7158,-1.7154,-1.715,-1.7124,-1.7147,-1.7137,-1.7086,-1.7109,-1.7081,-1.7078,-1.7075,-1.7073,-1.7072,-1.7096,-1.7094,-1.7051,-1.7051,-1.7052,-1.7052,0,0,0,0,0,0,0,-1.7184,-1.7183,-1.7179,-1.7158,-1.7153,-1.7135,-1.7131,-1.7145,-1.7105,-1.7107,-1.7102,-1.7099,-1.7072,-1.7071,-1.707,-1.7094,-1.7051,-1.7051,-1.7052,-1.7052,-1.7157,-1.7159,0,0,0,0,0,0,-1.719,-1.7184,-1.718,-1.7178,-1.7161,-1.7137,-1.7132,-1.7134,-1.7104,-1.7098,-1.7101,-1.7095,-1.7071,-1.7069,-1.7069,-1.7124,-1.7052,-1.7052,-1.7053,-1.7155,-1.7158,-1.716,0,0,0,0,0,0,-1.7191,-1.7191,-1.7181,-1.7179,-1.7177,-1.7139,-1.7143,-1.7135,-1.7134,-1.71,-1.7092,-1.7107,-1.7069,-1.7068,-1.7091,-1.7122,-1.7053,-1.7053,-1.7152,-1.7156,-1.7159,-1.7236,0,0,0,0,0,0,-1.7191,-1.7191,-1.7209,-1.718,-1.7177,-1.7204,-1.7144,-1.7136,-1.7135,-1.7128,-1.7103,-1.7097,-1.7067,-1.709,-1.7092,-1.7122,-1.7054,-1.7149,-1.7154,-1.7158,-1.723,-1.7241,-1.7251,0,0,0,0,0,-1.7192,-1.7232,-1.721,-1.721,-1.7198,-1.7205,-1.7204,-1.7168,-1.7138,-1.7156,-1.7134,-1.7098,-1.7119,-1.7093,-1.7094,-1.7125,-1.7147,-1.7152,-1.7157,-1.7225,-1.7239,-1.7251,0,0,0,0,0,0,-1.7265,-1.7227,-1.7203,-1.7235,-1.7224,-1.7193,-1.7214,-1.7184,-1.7181,-1.7175,-1.7131,-1.7126,-1.7155,-1.7142,-1.7115,-1.7171,-1.7127,-1.7133,-1.7178,-1.7191,-1.7201,-1.7204,-1.7054,0,0,0,0,0,-1.7285,-1.7293,-1.726,-1.7292,-1.7287,-1.7252,-1.7254,-1.7228,-1.7215,-1.721,-1.7189,-1.7179,-1.7183,-1.7186,-1.7188,-1.7228,-1.7222,-1.725,-1.7261,-1.7269,-1.7275,-1.7296,-1.7308,-1.7178,-1.7177,-1.7177,0,0,-1.7326,-1.7307,-1.7314,-1.7306,-1.7294,-1.7305,-1.7249,-1.7262,-1.7269,-1.7212,-1.7232,-1.7217,-1.7202,-1.7235,-1.7248,-1.7225,-1.731,-1.7276,-1.7283,-1.7284,-1.7303,-1.7315,-1.7326,-1.7181,-1.718,-1.718,0,0,-1.7406,-1.7392,-1.7417,-1.7407,-1.739,-1.7367,-1.7373,-1.7347,-1.7335,-1.7355,-1.7312,-1.7321,-1.7329,-1.732,-1.7317,-1.7396,-1.7363,-1.7398,-1.7452,-1.7473,-1.7484,-1.7492,-1.7521,-1.7532,-1.7403,-1.7403,-1.7404,0,-1.746,-1.7473,-1.7434,-1.745,-1.7448,-1.7397,-1.7422,-1.7415,-1.74,-1.74,-1.7374,-1.7383,-1.737,-1.74,-1.7419,-1.7418,-1.7424,-1.74,-1.7485,-1.7494,-1.7501,-1.7528,-1.7539,-1.7408,-1.7407,-1.7407,-1.7406,0,-1.754,-1.755,-1.7572,-1.7559,-1.756,-1.7581,-1.7546,-1.7551,-1.7525,-1.7505,-1.7527,-1.7509,-1.7506,-1.7511,-1.7486,-1.7538,-1.7525,-1.7493,-1.7448,-1.7519,-1.7544,-1.7554,-1.7414,-1.7412,-1.7411,-1.741,0,0,-1.7664,-1.763,-1.7639,-1.7633,-1.7611,-1.7619,-1.7638,-1.7636,-1.7641,-1.7633,-1.7649,-1.7657,-1.7628,-1.7624,-1.7598,-1.7617,-1.7681,-1.7583,-1.7582,-1.7602,-1.7739,-1.7763,-1.7775,-1.766,-1.7662,-1.7663,-1.774,0,-1.774,-1.777,-1.7736,-1.7774,-1.7783,-1.7735,-1.7752,-1.7741,-1.7723,-1.7729,-1.7709,-1.7716,-1.7676,-1.7674,-1.769,-1.767,-1.7708,-1.7664,-1.7674,-1.7675,-1.7679,-1.7788,-1.7813,-1.7886,-1.7749,-1.7751,-1.7752,0,-1.7831,-1.7827,-1.7866,-1.7843,-1.7846,-1.7861,-1.7857,-1.7863,-1.7851,-1.7836,-1.7833,-1.7801,-1.7819,-1.7776,-1.7801,-1.7771,-1.7774,-1.7765,-1.7767,-1.7766,-1.7718,-1.7791,-1.7909,-1.792,-1.7767,-1.7766,-1.7764,0,-1.7919,-1.7923,-1.7947,-1.7943,-1.7917,-1.793,-1.7919,-1.7904,-1.7905,-1.7902,-1.7903,-1.7902,-1.7901,-1.7902,-1.7871,-1.7842,-1.79,-1.7854,-1.7889,-1.789,-1.7903,-1.7903,-1.8024,-1.7905,-1.7905,-1.7905,-1.7904,0,-1.8006,-1.8032,-1.7986,-1.8001,-1.8029,-1.799,-1.8019,-1.8004,-1.7991,-1.8003,-1.7962,-1.7974,-1.7932,-1.794,-1.7917,-1.7941,-1.7941,-1.7931,-1.7924,-1.7934,-1.7936,-1.7935,-1.7929,-1.7908,-1.7907,-1.7906,-1.7906,0,-1.8108,-1.8079,-1.8102,-1.8075,-1.8069,-1.8091,-1.8069,-1.8082,-1.8061,-1.8077,-1.8078,-1.8046,-1.8054,-1.8023,-1.8025,-1.8009,-1.8046,-1.8031,-1.8051,-1.8046,-1.8084,-1.8081,-1.8208,-1.8224,-1.8095,-1.8097,-1.8098,0,-1.8166,-1.8184,-1.816,-1.8165,-1.8157,-1.8165,-1.8166,-1.813,-1.8133,-1.8121,-1.8136,-1.814,-1.8141,-1.8155,-1.8132,-1.8134,-1.8119,-1.8163,-1.8118,-1.8129,-1.812,-1.8119,-1.8121,-1.8173,-1.8174,-1.8175,-1.8176,0,-1.8271,-1.8256,-1.8259,-1.8258,-1.8261,-1.8258,-1.8252,-1.8259,-1.822,-1.8225,-1.8232,-1.8233,-1.8236,-1.824,-1.8238,-1.8228,-1.8196,-1.8191,-1.8199,-1.821,-1.8221,-1.8216,-1.8076,-1.8188,-1.8187,-1.8186,-1.8185,-1.8185,-1.8353,-1.8368,-1.8353,-1.8359,-1.8351,-1.8347,-1.8358,-1.834,-1.8345,-1.8344,-1.8322,-1.8334,-1.8322,-1.8315,-1.8308,-1.8317,-1.8296,-1.8308,-1.8311,-1.8315,-1.8322,-1.822,-1.8317,-1.8316,-1.8316,-1.8316,-1.8315,0,-1.8457,-1.8445,-1.8451,-1.8444,-1.8449,-1.8419,-1.8412,-1.8418,-1.8428,-1.842,-1.8422,-1.8431,-1.8435,-1.8414,-1.8416,-1.8427,-1.8413,-1.8429,-1.8428,-1.8426,-1.834,-1.8333,-1.8441,-1.8441,-1.8441,-1.8441,-1.8441,-1.8441,-1.8511,-1.8535,-1.8518,-1.8538,-1.8527,-1.8537,-1.8536,-1.8533,-1.8526,-1.8537,-1.8541,-1.8527,-1.8514,-1.8515,-1.8518,-1.8512,-1.8514,-1.8536,-1.8525,-1.8444,-1.8432,-1.842,-1.8413,-1.8537,-1.8537,-1.861,-1.8611,-1.8611]},{"header":{"parameterUnit":"m.s-1","parameterCategory":1,"la1":30.2991,"la2":30.254,"lo1":-89.0895,"lo2":-89.0444,"dy":0.0017,"dx":0.0017,"nx":28,"ny":28,"refTime":"2026-02-27T03:00:00:Z","depth":0,"parameterNumber":3,"parameterNumberName":"V-component_of_WINDS"},"data":[0,0,0,0,0,0,0,0,0,0,0,0,0,0,0,0,0,0,0,0,0,0,0,0,0,0,0,0,0,0,0,0,0,0,0,0,0,0,0,0,0,0,0,0,0,0,0,0,0,0,0,0,0,0,0,0,0,0,-0.8784,-0.8784,0,-0.8811,-0.8811,-0.8811,-0.8786,-0.8785,-0.8784,-0.8783,-0.8813,-0.8814,-0.8816,0,0,0,0,0,0,0,0,0,0,0,0,0,-0.8713,-0.8714,-0.8784,-0.8784,-0.8785,-0.8811,-0.8811,-0.8812,-0.8786,-0.8785,-0.8784,-0.8783,-0.8812,-0.8814,-0.8816,0,0,0,0,0,0,0,0,0,0,0,0,0,-0.8742,-0.8715,-0.8784,-0.8775,-0.8775,-0.8811,-0.8811,-0.8812,-0.8786,-0.8785,-0.8783,-0.8782,-0.8811,-0.8814,-0.8817,-0.8863,0,0,-0.8825,-0.8826,0,0,0,0,0,0,0,0,-0.8741,-0.8745,-0.8776,-0.8776,-0.8775,-0.8793,-0.8797,-0.8829,-0.8787,-0.8782,-0.8783,-0.8781,-0.8808,-0.881,-0.8819,-0.8865,-0.8866,-0.8825,-0.8826,-0.8827,-0.8828,0,0,0,0,0,0,0,-0.8739,-0.8744,-0.8795,-0.8777,-0.8776,-0.877,-0.8773,-0.8803,-0.8803,-0.8782,-0.8781,-0.8784,-0.8807,-0.8816,-0.8819,-0.8866,-0.8825,-0.8827,-0.8829,-0.883,-0.8952,-0.8954,0,0,0,0,0,0,-0.8737,-0.8742,-0.8794,-0.8796,-0.8754,-0.8773,-0.8776,-0.8789,-0.8803,-0.8803,-0.8785,-0.8783,-0.8813,-0.8816,-0.882,-0.8876,-0.8827,-0.883,-0.8831,-0.895,-0.8953,-0.8954,0,0,0,0,0,0,-0.8736,-0.8742,-0.8793,-0.8768,-0.8774,-0.8776,-0.8791,-0.8791,-0.88,-0.8805,-0.8805,-0.8795,-0.8812,-0.8817,-0.8853,-0.8877,-0.8831,-0.8833,-0.8948,-0.8951,-0.8953,-0.8988,0,0,0,0,0,0,-0.8734,-0.8742,-0.8759,-0.8769,-0.8776,-0.8824,-0.8793,-0.8792,-0.8804,-0.8801,-0.8814,-0.8814,-0.8811,-0.8849,-0.8855,-0.888,-0.8835,-0.8946,-0.895,-0.8953,-0.8985,-0.8992,-0.8998,0,0,0,0,0,-0.8731,-0.8768,-0.876,-0.8767,-0.8797,-0.8826,-0.883,-0.8824,-0.8806,-0.8824,-0.8827,-0.8814,-0.8873,-0.8853,-0.886,-0.8885,-0.8945,-0.8949,-0.8952,-0.8982,-0.899,-0.8997,0,0,0,0,0,0,-0.8762,-0.877,-0.876,-0.8802,-0.8813,-0.8821,-0.8844,-0.8833,-0.8851,-0.8847,-0.884,-0.8843,-0.8881,-0.8887,-0.8864,-0.8931,-0.8906,-0.8912,-0.8927,-0.8934,-0.894,-0.8939,-0.8838,0,0,0,0,0,-0.8774,-0.8795,-0.8801,-0.8837,-0.8843,-0.8842,-0.8854,-0.8849,-0.8861,-0.8866,-0.8872,-0.8885,-0.8906,-0.892,-0.894,-0.8985,-0.8988,-0.9007,-0.9013,-0.9018,-0.9023,-0.9047,-0.9056,-0.8967,-0.8967,-0.8967,0,0,-0.8798,-0.8805,-0.8819,-0.8843,-0.8851,-0.8875,-0.8847,-0.8872,-0.889,-0.887,-0.8904,-0.8909,-0.8923,-0.8964,-0.8982,-0.897,-0.9048,-0.9023,-0.9027,-0.9029,-0.9052,-0.9061,-0.9068,-0.8969,-0.8969,-0.8968,0,0,-0.8854,-0.8861,-0.8891,-0.89,-0.8913,-0.8912,-0.892,-0.8929,-0.8931,-0.8965,-0.8951,-0.8972,-0.9009,-0.9019,-0.903,-0.9089,-0.9078,-0.9096,-0.9129,-0.9153,-0.916,-0.9166,-0.9188,-0.9196,-0.9101,-0.9101,-0.9101,0,-0.8883,-0.8917,-0.8909,-0.8935,-0.8947,-0.8929,-0.896,-0.8969,-0.8988,-0.8997,-0.8982,-0.9028,-0.9036,-0.9079,-0.9094,-0.9102,-0.9111,-0.9095,-0.9159,-0.9165,-0.9171,-0.9192,-0.92,-0.9103,-0.9103,-0.9102,-0.9102,0,-0.8951,-0.8975,-0.8998,-0.9016,-0.903,-0.9059,-0.9056,-0.9071,-0.9064,-0.9066,-0.9101,-0.9109,-0.9131,-0.9141,-0.9135,-0.9183,-0.9175,-0.916,-0.9135,-0.9182,-0.9201,-0.9209,-0.9106,-0.9105,-0.9105,-0.9104,0,0,-0.9028,-0.9041,-0.905,-0.9058,-0.907,-0.9089,-0.9117,-0.9137,-0.915,-0.9164,-0.9188,-0.9219,-0.9205,-0.9217,-0.9212,-0.9233,-0.928,-0.9215,-0.9216,-0.9228,-0.9335,-0.9346,-0.9356,-0.9272,-0.9274,-0.9275,-0.9334,0,-0.9085,-0.9133,-0.9127,-0.9174,-0.9196,-0.9179,-0.9204,-0.9214,-0.9216,-0.9236,-0.9238,-0.926,-0.924,-0.9247,-0.9267,-0.927,-0.9302,-0.9266,-0.9295,-0.9297,-0.9293,-0.9366,-0.9378,-0.9433,-0.9341,-0.9342,-0.9343,0,-0.9158,-0.9173,-0.9222,-0.9231,-0.924,-0.9262,-0.928,-0.9298,-0.931,-0.931,-0.9323,-0.9314,-0.9343,-0.9317,-0.9357,-0.9332,-0.9344,-0.9348,-0.935,-0.9353,-0.9323,-0.9371,-0.945,-0.9459,-0.9355,-0.9354,-0.9353,0,-0.921,-0.9242,-0.9276,-0.9283,-0.9294,-0.931,-0.9316,-0.9326,-0.9339,-0.9355,-0.9363,-0.9382,-0.9393,-0.9409,-0.9406,-0.9386,-0.9447,-0.942,-0.9448,-0.9449,-0.9463,-0.9462,-0.9545,-0.9469,-0.9469,-0.9469,-0.9468,0,-0.9274,-0.9304,-0.9299,-0.932,-0.9354,-0.9346,-0.938,-0.9384,-0.9393,-0.9415,-0.9401,-0.9422,-0.9417,-0.9437,-0.9435,-0.9469,-0.9474,-0.9475,-0.9474,-0.9477,-0.9477,-0.9485,-0.9481,-0.9471,-0.947,-0.947,-0.947,0,-0.9338,-0.9335,-0.9371,-0.9378,-0.9381,-0.9405,-0.9412,-0.9432,-0.9432,-0.946,-0.9466,-0.9466,-0.949,-0.9488,-0.9515,-0.9514,-0.9556,-0.955,-0.9552,-0.9551,-0.958,-0.9577,-0.9672,-0.9684,-0.9599,-0.96,-0.9601,0,-0.9379,-0.9402,-0.9412,-0.9425,-0.9431,-0.9453,-0.9465,-0.9459,-0.9473,-0.9488,-0.9506,-0.9528,-0.9546,-0.9584,-0.9588,-0.9608,-0.9604,-0.9635,-0.9607,-0.9608,-0.9605,-0.9604,-0.9607,-0.9641,-0.9642,-0.9643,-0.9644,0,-0.9453,-0.9451,-0.9469,-0.9487,-0.9502,-0.9516,-0.9529,-0.9541,-0.9536,-0.9552,-0.9575,-0.9589,-0.9616,-0.9638,-0.9658,-0.9664,-0.9654,-0.9652,-0.966,-0.9663,-0.9664,-0.9665,-0.9568,-0.9651,-0.965,-0.9649,-0.9649,-0.9649,-0.9508,-0.9528,-0.9537,-0.9558,-0.9567,-0.9579,-0.9598,-0.96,-0.962,-0.9641,-0.9636,-0.9663,-0.9674,-0.9699,-0.9707,-0.9729,-0.9717,-0.9728,-0.9731,-0.9734,-0.9738,-0.9659,-0.9732,-0.9732,-0.9732,-0.9731,-0.9731,0,-0.9582,-0.9587,-0.9606,-0.9624,-0.9641,-0.9628,-0.9641,-0.9656,-0.968,-0.9691,-0.9708,-0.9736,-0.9757,-0.9762,-0.9783,-0.9799,-0.9795,-0.9805,-0.9804,-0.9806,-0.9747,-0.9738,-0.9808,-0.9808,-0.9808,-0.9808,-0.9808,-0.9808,-0.9622,-0.9655,-0.9654,-0.9691,-0.9696,-0.9722,-0.9731,-0.9742,-0.9751,-0.9782,-0.98,-0.9802,-0.9811,-0.9833,-0.9852,-0.9853,-0.9862,-0.9874,-0.9874,-0.9818,-0.981,-0.9803,-0.9795,-0.9876,-0.9876,-0.9932,-0.9932,-0.9932]}]]